SCP
0 0 0 0 0 0 0 0 0 0 0 0 0 0 0 0 0 0 0 -0 0 -0 0 -0 -0 -0 -0 0 0 0 0 -0 -0 -0 -0 -0 -0 -0 -0 -0 -0 -0 -0 -0 -0 -0 -0 -0 -0
0 0 0 0 0 0 0 0 0 0 0 0 0 0 0 0 0 0 0 -0 0 -0 -0 -0 -0 -0 -0 0 0 0 0 -0 -0 -0 -0 -0 -0 -0 -0 -0 -0 -0 -0 -0 -0 -0 -0 -0 -0
0 0 0 0 0 0 0 0 0 0 0 0 0 0 0 0 0 0 0 -0 0 -0 -0 -0 -0 -0 -0 0 -0 0 0 0 -0 -0 -0 -0 -0 -0 -0 -0 -0 -0 -0 -0 -0 -0 -0 -0 -0
0 0 0 0 0 0 0 0 0 0 0 0 0 0 0 0 0 0 -0 -0 -0 -0 -0 -0 -0 -0 -0 0 -0 0 -0 -0 -0 -0 -0 -0 -0 -0 -0 -0 -0 -0 -0 -0 -0 -0 -0 -0 -0
0 0 0 0 0 0 0 0 0 0 0 0 0 0 0 0 0 -0 -0 -0 -0 0 0 -0 -0 -0 0 0 0 0 -0 -0 -0 -0 -0 -0 -0 -0 -0 -0 -0 -0 -0 -0 -0 -0 -0 -0 -0
0 0 0 0 0 0 0 0 0 0 0 0 0 0 0 0 -0 -0 -0 -0 -0 0 0 -0 0 0 0 0 0 -0 0 -0 -0 -0 -0 -0 -0 -0 -0 -0 -0 -0 -0 -0 -0 -0 -0 -0 -0
0 0 0 0 0 0 0 0 0 0 0 0 0 0 0 0 0 -0 -0 -0 0 0 0 -0 0 -0 0 0 0 0 0 -0 -0 -0 -0 -0 -0 -0 -0 -0 -0 -0 -0 -0 -0 -0 -0 -0 0
0 0 0 0 0 0 0 0 0 0 0 0 0 0 0 0 0 -0 -0 -0 -0 0 0 0 0 0 0 0 0 0 0 -0 -0 -0 -0 -0 -0 -0 -0 -0 -0 -0 -0 -0 -0 -0 -0 0 0
0 0 0 0 0 0 0 0 0 0 0 0 0 0 0 0 0 -0 0 0 0 0 0 0 0 0 0 0 0 0 0 0 0 0 -0 0 0 0 0 0 0 0 -0 -0 0 0 0 0 0
0 0 0 0 0 0 0 0 0 0 0 0 0 0 0 0 -0 -0 -0 -0 0 0 0 -0 0 0 0 0 0 0 0 0 0 0 0 0 0 0 0 0 0 0 0 0 0 0 0 0 0
0 0 0 0 0 0 0 0 0 0 0 0 0 0 0 0 0 -0 -0 -0 -0 0 0 0 0 0 0 0 0 0 0 0 0 0 0 0 0 0 0 0 0 0 0 0 0 0 0 0 0
0 0 0 0 0 0 0 0 0 0 0 0 0 0 0 0 0 0 -0 -0 0 0 0 0 0 0 0 0 0 0 0 0 0 0 0 0 0 0 0 0 0 0 0 0 0 0 0 0 0
0 0 0 0 0 0 0 0 0 0 0 0 0 0 0 0 0 0 0 0 0 0 0 0 0 0 0 0 0 0 0 0 0 0 0 0 0 0 0 0 0 0 0 0 0 0 0 0 0
0 0 0 0 0 0 0 0 0 0 0 0 0 0 0 0 0 0 0 0 0 0 0 0 0 0 0 0 0 0 0 0 0 0 0 0 0 0 0 0 0 0 0 0 0 0 0 0 0
0 0 0 0 0 0 0 0 0 0 0 0 0 0 0 0 0 0 0 0 0 0 0 0 0 0 0 0 0 0 0 0 0 0 0 0 0 0 0 0 0 0 0 0 0 0 0 0 0
0 0 0 0 0 0 0 0 -0 0 0 0 0 0 0 0 0 0 0 0 0 0 0 0 0 0 0 0 0 0 0 0 0 0 0 0 0 0 0 0 0 0 0 0 0 0 0 0 0
0 0 0 0 0 0 0 0 -0 0 0 0 0 0 0 0 0 0 0 0 0 0 0 0 0 0 0 0 0 0 0 0 0 0 0 0 0 0 0 0 0 0 0 0 0 0 0 0 0
0 0 0 0 0 0 0 0 0 0 0 0 0 0 0 0 0 0 0 0 0 0 0 0 0 0 0 0 0 0 0 0 0 0 0 0 0 0 0 0 0 0 0 0 0 0 0 0 0
0 0 0 0 0 0 0 0 0 -0 -0 0 0 0 0 0 0 0 0 0 0 0 0 0 0 0 0 0 0 0 0 0 0 0 0 0 0 0 0 0 0 0 0 0 0 0 0 0 0
0 0 0 0 0 0 0 0 0 0 0 -0 -0 -0 0 0 0 0 0 0 0 0 0 0 0 0 0 0 0 0 0 0 0 0 0 0 0 0 0 0 0 0 0 0 0 0 0 0 0
0 0 0 0 0 0 0 -0 -0 0 0 0 -0 0 0 0 0 0 0 0 0 0 0 0 0 0 0 0 0 0 0 0 0 0 0 0 0 0 0 0 0 0 0 0 0 0 0 0 0
0 0 0 0 0 0 0 -0 -0 -0 0 0 0 0 0 0 0 0 0 0 0 0 0 0 0 0 0 0 0 0 0 0 0 0 0 0 0 0 0 0 0 0 0 0 0 0 0 0 0
0 0 0 0 0 0 0 0 -0 -0 -0 0 0 0 0 0 0 0 0 0 0 0 0 0 0 0 0 0 0 0 0 0 0 0 0 0 0 0 0 0 0 0 0 0 0 0 0 0 0
0 0 0 0 0 0 0 0 -0 -0 -0 -0 0 0 0 0 0 0 0 0 0 0 0 0 0 0 0 0 0 0 0 0 0 0 0 0 0 0 0 0 0 0 0 0 0 0 0 0 0
0 0 0 0 0 0 0 0 0 0 0 -0 0 0 0 0 0 0 0 0 0 0 0 0 0 0 0 0 0 0 0 0 0 0 0 0 0 0 0 0 0 0 0 0 0 0 0 0 0
0 0 0 0 0 0 0 0 -0 -0 -0 -0 0 0 0 0 0 0 0 0 0 0 0 0 0 0 0 0 0 0 0 0 0 0 0 0 0 0 0 0 0 0 0 0 0 0 0 0 0
0 0 0 0 0 0 0 0 0 0 0 0 0 0 0 0 0 0 0 0 0 0 0 0 0 0 0 0 0 0 0 0 0 0 0 0 0 0 0 0 0 0 0 0 0 0 0 0 0
0 0 0 0 0 0 0 0 0 0 0 0 0 0 0 0 0 0 0 0 0 0 0 0 0 0 0 0 0 0 0 0 0 0 0 0 0 0 0 0 0 0 0 0 0 0 0 0 0
0 0 0 0 0 0 0 0 -0 -0 0 0 0 0 0 0 0 0 0 0 0 0 0 0 0 0 0 0 0 0 0 0 0 0 0 0 0 0 0 0 0 0 0 0 0 0 0 0 0
0 -0 0 0 0 0 0 0 0 0 0 0 0 0 0 -0 -0 -0 0 0 0 0 0 0 0 0 0 0 0 0 0 0 0 0 0 0 0 0 0 0 0 0 0 0 0 0 0 0 0
Wind_Speed_500mb
12 14 13 10 8 9 4 8 1 4 1 3 11 8 10 8 7 6 19 35 30 32 30 27 22 21 20 19 18 16 15 13 11 12 12 16 21 26 30 28 25 26 29 29 28 29 35 32 35
12 12 5 6 8 4 8 6 8 8 16 26 18 12 7 2 4 15 37 27 30 33 29 23 25 21 21 19 16 14 14 17 15 8 6 14 22 28 30 28 25 25 28 26 27 29 31 33 32
9 10 4 8 6 7 7 7 8 7 30 5 7 8 6 6 7 36 24 28 33 35 26 20 24 24 22 19 17 11 16 18 14 9 0 7 16 23 26 26 25 25 25 24 26 26 28 29 28
7 5 9 7 7 9 8 2 9 19 8 6 12 10 5 4 19 25 26 30 35 32 24 22 23 24 23 21 16 15 22 19 13 8 8 14 13 18 24 25 24 24 23 23 24 24 24 22 21
5 4 5 2 7 7 6 6 26 8 7 10 10 8 9 17 14 18 26 34 32 27 25 22 23 22 23 23 19 21 25 19 12 8 5 14 16 18 21 22 23 23 22 23 21 21 19 17 18
5 4 5 7 8 7 6 15 13 7 11 14 9 17 10 19 12 23 27 30 28 21 22 23 22 22 21 21 20 29 28 22 15 9 5 14 16 17 18 18 21 21 21 20 17 14 13 15 15
6 6 6 8 6 5 5 16 7 11 9 9 17 11 8 23 20 26 27 28 25 22 20 24 23 23 19 22 30 35 32 25 21 11 13 12 16 17 16 16 18 18 17 16 14 9 8 10 11
2 7 4 7 8 8 4 13 4 14 10 11 14 8 9 32 31 32 28 26 23 21 20 22 23 23 22 22 28 33 33 29 22 15 13 14 16 16 16 16 17 18 16 13 11 7 4 5 8
2 6 5 6 6 7 3 8 11 13 14 15 12 7 7 34 39 39 37 37 33 28 24 23 22 23 23 22 25 32 32 28 24 17 12 14 18 18 17 16 16 16 15 13 11 6 1 4 7
2 5 14 5 3 6 5 5 15 12 15 12 16 16 14 40 45 47 50 48 43 38 32 28 26 24 26 26 26 26 30 29 24 21 16 16 19 18 17 17 17 18 16 13 9 5 3 5 7
4 6 4 7 2 4 7 4 3 17 5 21 27 28 26 45 51 50 54 50 49 40 37 31 31 30 30 27 24 24 27 27 25 23 21 19 20 20 19 17 15 15 14 11 8 5 4 6 8
2 11 11 6 5 8 4 8 4 17 11 16 26 25 30 45 52 54 55 54 51 47 40 32 32 35 34 30 26 23 25 24 24 23 24 25 23 22 20 18 18 16 15 11 9 7 6 6 8
4 6 9 26 21 21 11 6 7 18 19 17 14 27 32 36 46 53 52 50 46 49 45 38 35 37 38 35 31 29 28 27 26 25 26 26 25 23 21 21 20 18 14 13 11 9 8 9 9
3 14 19 11 14 15 9 4 2 11 19 21 22 28 34 36 38 50 57 54 54 46 48 39 39 35 40 39 34 31 32 31 32 28 28 27 28 26 24 24 22 20 17 16 15 13 12 11 8
6 10 12 17 8 8 4 13 15 24 19 21 26 32 37 40 45 50 49 53 52 50 50 49 43 40 39 40 38 37 32 36 36 33 33 30 30 31 28 28 25 22 21 21 18 16 16 15 13
1 3 3 9 11 9 4 23 15 31 24 28 29 34 39 42 44 48 53 54 52 53 57 54 51 48 46 43 41 40 39 37 40 38 37 37 35 34 33 32 29 26 25 23 22 20 19 18 18
6 6 6 13 7 4 11 15 26 35 33 37 37 38 40 42 45 44 51 55 57 55 59 61 61 56 51 50 47 46 44 42 41 42 44 40 39 37 35 34 31 31 31 29 27 25 23 23 22
11 9 6 9 5 8 10 31 17 41 15 41 40 42 45 49 50 42 46 51 55 58 61 64 68 65 57 57 55 53 53 54 48 46 48 46 45 43 43 40 35 37 37 34 31 30 28 27 27
8 5 9 5 11 4 11 27 28 45 36 36 48 45 59 65 57 57 55 51 55 59 63 68 70 72 69 69 68 67 67 65 61 56 53 51 51 49 48 45 42 42 42 38 36 35 33 33 35
5 4 6 10 8 5 16 29 29 29 36 51 59 68 82 79 67 63 69 64 59 58 58 64 69 73 76 79 79 78 75 74 69 62 59 58 56 54 53 51 50 48 48 46 45 43 42 39 42
8 19 6 6 12 6 10 20 21 17 38 61 68 76 78 74 72 69 67 73 70 68 68 66 63 73 73 77 81 83 81 85 82 79 72 65 62 60 59 58 56 54 54 55 51 50 50 48 44
19 14 8 8 8 7 4 14 16 8 18 21 55 66 81 81 79 75 74 75 79 76 73 72 70 68 71 74 79 85 85 90 88 83 75 71 65 65 64 63 63 61 60 61 58 57 57 54 54
7 11 16 10 9 7 17 11 14 4 13 19 34 64 70 65 67 83 86 82 84 77 75 70 74 73 74 74 76 78 84 85 85 84 80 75 73 71 70 69 66 67 68 67 65 64 64 63 64
14 9 7 5 5 11 30 19 11 13 12 12 33 60 62 59 63 69 74 79 87 86 87 81 81 79 80 80 79 83 82 83 87 85 84 80 78 77 76 74 72 71 72 73 71 69 69 69 69
10 13 3 7 9 17 4 16 34 19 12 13 25 50 60 71 65 58 58 67 71 73 82 85 93 94 88 91 89 89 84 82 84 85 83 83 78 77 77 77 78 78 77 76 75 76 75 75 77
20 14 8 9 7 12 6 15 14 26 51 59 73 71 73 72 69 64 54 47 50 57 61 71 85 95 96 97 96 93 89 87 82 82 85 81 80 77 76 76 78 80 80 78 79 80 81 83 84
6 23 14 3 2 2 8 18 18 16 20 33 54 63 67 70 71 67 64 62 52 47 50 58 70 80 82 84 86 89 91 91 85 77 78 80 79 77 74 74 74 73 74 75 76 79 81 85 86
7 4 7 10 9 10 11 12 22 13 17 25 28 58 61 49 55 59 59 53 54 58 56 57 55 65 70 74 79 84 87 89 85 82 78 73 69 73 73 71 69 68 67 66 67 71 71 76 78
13 10 6 1 6 5 6 14 15 29 29 17 22 50 61 65 66 56 42 39 35 40 47 53 57 54 59 63 70 76 80 82 84 87 79 75 75 72 70 66 65 65 63 61 62 64 64 69 68
14 16 21 10 7 5 3 36 10 17 16 16 33 57 62 46 44 43 35 37 35 33 35 36 41 51 50 49 54 58 62 67 73 76 77 72 69 66 64 60 61 60 59 58 59 60 59 60 63
Wind_Direction_500mb
320 323 325 342 43 58 276 263 271 137 177 205 144 167 163 92 150 201 156 161 163 169 163 155 157 162 157 153 141 132 122 112 114 95 82 78 99 103 103 102 98 98 99 104 94 86 94 91 85
344 340 340 52 85 43 271 256 202 194 136 109 101 102 74 102 129 147 151 167 164 173 163 164 161 171 165 153 142 125 131 128 134 108 86 84 93 104 109 101 98 97 102 105 95 92 88 87 88
355 355 38 84 104 191 237 230 163 159 153 105 108 76 101 147 176 154 165 169 166 178 175 180 169 177 170 164 159 151 152 146 145 132 246 116 101 110 110 102 104 104 105 106 97 90 90 90 88
343 76 61 87 231 248 217 236 170 138 205 182 151 76 101 155 139 163 168 166 159 177 181 181 174 178 176 180 181 173 159 163 163 138 123 145 109 106 110 109 112 112 110 104 97 97 95 88 83
351 77 69 17 262 259 258 234 163 154 149 156 162 170 152 156 144 161 169 168 171 178 179 178 179 174 176 180 185 175 158 170 173 147 136 123 125 116 111 111 116 116 117 114 110 104 99 92 86
29 52 95 206 241 272 311 168 153 152 157 156 139 142 163 174 177 167 172 176 178 190 187 180 174 171 180 179 178 158 159 170 191 195 234 140 134 124 117 118 119 120 120 121 119 111 112 97 86
125 90 215 181 247 291 212 168 169 167 173 207 154 135 200 183 171 165 169 176 183 191 197 179 171 168 173 166 159 158 172 189 209 214 203 171 145 134 121 118 121 124 128 132 129 121 95 85 79
163 101 145 253 202 233 294 166 178 170 197 171 182 193 213 187 170 169 168 181 200 203 200 192 177 170 168 170 174 178 184 193 207 211 194 166 150 142 141 140 138 141 146 143 134 126 105 59 43
233 79 192 238 182 224 195 179 156 164 165 179 204 236 225 182 176 175 177 195 201 206 205 204 193 182 177 174 185 190 196 200 205 215 194 173 165 161 156 155 154 153 155 158 157 150 128 359 5
86 149 211 216 164 300 270 193 158 150 173 221 219 221 208 188 185 186 190 199 204 209 207 205 206 201 192 186 188 195 201 206 209 212 203 188 179 175 170 175 172 170 174 179 181 192 225 313 331
145 221 273 234 185 319 297 110 156 141 205 224 216 213 205 193 195 197 201 210 209 216 214 206 210 212 210 202 200 203 207 209 213 215 218 202 195 191 188 192 191 190 189 198 215 231 260 294 310
222 250 255 287 223 330 335 329 235 205 192 224 233 235 210 203 205 208 212 214 214 219 216 217 218 220 214 216 215 215 217 222 222 220 217 205 203 200 198 202 207 204 203 216 233 245 256 273 290
196 264 256 257 272 293 278 275 270 246 228 235 241 220 215 216 215 216 221 224 219 214 216 218 226 224 221 220 224 223 222 227 226 223 213 214 212 210 211 216 220 218 224 234 243 245 251 258 284
290 261 273 296 297 273 279 205 192 270 234 234 228 217 218 222 225 221 223 225 222 221 218 222 229 231 227 228 229 235 235 230 230 226 219 222 217 218 220 224 228 228 233 237 243 245 249 251 265
279 346 331 258 272 283 276 275 218 241 257 250 226 218 221 226 228 231 232 229 227 227 222 227 232 237 233 229 234 231 236 238 236 234 224 226 225 226 227 227 230 235 237 240 247 256 258 256 264
300 58 290 295 185 260 166 265 280 240 243 240 233 223 226 230 235 235 236 235 233 232 228 229 231 238 238 238 238 239 236 239 240 237 234 233 232 231 231 233 234 238 243 246 247 253 261 262 268
345 232 203 309 222 211 181 274 280 255 234 235 236 230 230 235 236 241 240 239 237 238 233 234 235 236 242 241 242 242 243 243 244 241 238 238 239 238 238 239 237 239 243 247 251 256 262 263 265
195 225 229 229 281 191 231 256 270 270 276 243 243 246 246 245 250 251 249 243 241 242 240 243 241 239 242 245 244 246 245 245 245 244 241 241 241 240 240 240 238 240 245 248 253 258 261 260 257
141 197 217 248 263 303 243 264 267 272 272 251 255 253 258 258 258 256 251 246 241 241 240 239 238 238 236 238 240 240 241 244 246 245 244 241 241 241 244 245 243 243 247 252 254 255 256 256 254
129 165 258 281 291 182 282 272 272 265 261 259 260 267 266 263 264 266 255 245 240 242 243 241 239 238 237 237 241 246 246 247 248 251 251 247 244 243 244 245 245 246 249 250 251 254 256 256 252
205 231 201 265 329 267 305 277 260 249 243 258 260 261 263 262 262 261 264 250 244 240 241 244 242 238 238 239 242 246 248 249 248 248 248 248 246 245 245 246 248 247 249 252 255 257 258 259 258
233 184 202 263 335 258 30 290 263 246 249 249 257 258 261 261 261 259 259 258 249 253 253 249 246 244 240 239 240 244 248 246 246 250 252 251 250 249 248 247 247 249 250 252 254 256 257 257 256
221 162 191 201 237 319 238 277 264 271 262 257 260 263 264 267 266 264 259 257 255 256 256 251 244 244 243 240 241 245 246 250 252 254 256 255 254 253 252 251 251 251 252 254 255 256 256 256 256
153 88 71 85 133 250 244 203 238 235 219 234 251 263 268 273 272 270 267 264 259 258 255 251 247 246 247 245 244 245 248 247 249 252 254 255 255 254 254 254 253 253 255 256 257 259 259 258 258
148 125 281 225 202 237 41 198 246 280 276 239 254 274 277 281 278 274 272 268 265 261 255 253 250 250 250 247 247 246 248 249 250 252 254 256 258 258 256 255 254 256 258 259 260 261 262 262 260
193 165 190 217 212 268 64 234 254 224 249 252 261 268 271 275 273 271 275 276 268 264 260 255 254 254 252 249 250 251 248 249 251 252 254 256 258 261 263 261 260 261 262 264 266 266 267 265 264
173 214 195 19 78 312 226 276 290 239 258 255 257 265 271 276 280 282 275 270 268 264 262 263 257 255 251 249 247 246 247 247 251 256 256 258 261 263 266 266 266 266 266 266 267 267 267 268 269
192 178 185 198 210 233 244 272 243 325 266 254 260 261 273 293 302 295 280 276 262 255 259 264 266 256 253 252 249 248 249 250 251 253 256 260 264 265 267 270 272 273 272 271 269 268 269 269 271
176 204 174 66 207 235 311 259 217 231 244 243 262 276 289 295 293 290 282 270 264 255 252 256 260 260 255 252 252 254 255 254 251 252 255 260 262 265 270 273 275 275 276 275 273 272 273 273 275
221 218 199 226 224 235 235 267 208 227 242 242 271 290 307 308 299 285 269 255 253 253 251 254 257 259 258 259 260 259 259 258 256 255 257 263 267 269 271 273 272 275 276 275 273 273 274 274 275
Wind_Speed_850mb
12 14 13 10 8 9 4 8 1 4 1 3 11 8 10 8 7 6 19 35 30 32 30 27 22 21 20 19 18 16 15 13 11 12 12 16 21 26 30 28 25 26 29 29 28 29 35 32 35
12 12 5 6 8 4 8 6 8 8 16 26 18 12 7 2 4 15 37 27 30 33 29 23 25 21 21 19 16 14 14 17 15 8 6 14 22 28 30 28 25 25 28 26 27 29 31 33 32
9 10 4 8 6 7 7 7 8 7 30 5 7 8 6 6 7 36 24 28 33 35 26 20 24 24 22 19 17 11 16 18 14 9 0 7 16 23 26 26 25 25 25 24 26 26 28 29 28
7 5 9 7 7 9 8 2 9 19 8 6 12 10 5 4 19 25 26 30 35 32 24 22 23 24 23 21 16 15 22 19 13 8 8 14 13 18 24 25 24 24 23 23 24 24 24 22 21
5 4 5 2 7 7 6 6 26 8 7 10 10 8 9 17 14 18 26 34 32 27 25 22 23 22 23 23 19 21 25 19 12 8 5 14 16 18 21 22 23 23 22 23 21 21 19 17 18
5 4 5 7 8 7 6 15 13 7 11 14 9 17 10 19 12 23 27 30 28 21 22 23 22 22 21 21 20 29 28 22 15 9 5 14 16 17 18 18 21 21 21 20 17 14 13 15 15
6 6 6 8 6 5 5 16 7 11 9 9 17 11 8 23 20 26 27 28 25 22 20 24 23 23 19 22 30 35 32 25 21 11 13 12 16 17 16 16 18 18 17 16 14 9 8 10 11
2 7 4 7 8 8 4 13 4 14 10 11 14 8 9 32 31 32 28 26 23 21 20 22 23 23 22 22 28 33 33 29 22 15 13 14 16 16 16 16 17 18 16 13 11 7 4 5 8
2 6 5 6 6 7 3 8 11 13 14 15 12 7 7 34 39 39 37 37 33 28 24 23 22 23 23 22 25 32 32 28 24 17 12 14 18 18 17 16 16 16 15 13 11 6 1 4 7
2 5 14 5 3 6 5 5 15 12 15 12 16 16 14 40 45 47 50 48 43 38 32 28 26 24 26 26 26 26 30 29 24 21 16 16 19 18 17 17 17 18 16 13 9 5 3 5 7
4 6 4 7 2 4 7 4 3 17 5 21 27 28 26 45 51 50 54 50 49 40 37 31 31 30 30 27 24 24 27 27 25 23 21 19 20 20 19 17 15 15 14 11 8 5 4 6 8
2 11 11 6 5 8 4 8 4 17 11 16 26 25 30 45 52 54 55 54 51 47 40 32 32 35 34 30 26 23 25 24 24 23 24 25 23 22 20 18 18 16 15 11 9 7 6 6 8
4 6 9 26 21 21 11 6 7 18 19 17 14 27 32 36 46 53 52 50 46 49 45 38 35 37 38 35 31 29 28 27 26 25 26 26 25 23 21 21 20 18 14 13 11 9 8 9 9
3 14 19 11 14 15 9 4 2 11 19 21 22 28 34 36 38 50 57 54 54 46 48 39 39 35 40 39 34 31 32 31 32 28 28 27 28 26 24 24 22 20 17 16 15 13 12 11 8
6 10 12 17 8 8 4 13 15 24 19 21 26 32 37 40 45 50 49 53 52 50 50 49 43 40 39 40 38 37 32 36 36 33 33 30 30 31 28 28 25 22 21 21 18 16 16 15 13
1 3 3 9 11 9 4 23 15 31 24 28 29 34 39 42 44 48 53 54 52 53 57 54 51 48 46 43 41 40 39 37 40 38 37 37 35 34 33 32 29 26 25 23 22 20 19 18 18
6 6 6 13 7 4 11 15 26 35 33 37 37 38 40 42 45 44 51 55 57 55 59 61 61 56 51 50 47 46 44 42 41 42 44 40 39 37 35 34 31 31 31 29 27 25 23 23 22
11 9 6 9 5 8 10 31 17 41 15 41 40 42 45 49 50 42 46 51 55 58 61 64 68 65 57 57 55 53 53 54 48 46 48 46 45 43 43 40 35 37 37 34 31 30 28 27 27
8 5 9 5 11 4 11 27 28 45 36 36 48 45 59 65 57 57 55 51 55 59 63 68 70 72 69 69 68 67 67 65 61 56 53 51 51 49 48 45 42 42 42 38 36 35 33 33 35
5 4 6 10 8 5 16 29 29 29 36 51 59 68 82 79 67 63 69 64 59 58 58 64 69 73 76 79 79 78 75 74 69 62 59 58 56 54 53 51 50 48 48 46 45 43 42 39 42
8 19 6 6 12 6 10 20 21 17 38 61 68 76 78 74 72 69 67 73 70 68 68 66 63 73 73 77 81 83 81 85 82 79 72 65 62 60 59 58 56 54 54 55 51 50 50 48 44
19 14 8 8 8 7 4 14 16 8 18 21 55 66 81 81 79 75 74 75 79 76 73 72 70 68 71 74 79 85 85 90 88 83 75 71 65 65 64 63 63 61 60 61 58 57 57 54 54
7 11 16 10 9 7 17 11 14 4 13 19 34 64 70 65 67 83 86 82 84 77 75 70 74 73 74 74 76 78 84 85 85 84 80 75 73 71 70 69 66 67 68 67 65 64 64 63 64
14 9 7 5 5 11 30 19 11 13 12 12 33 60 62 59 63 69 74 79 87 86 87 81 81 79 80 80 79 83 82 83 87 85 84 80 78 77 76 74 72 71 72 73 71 69 69 69 69
10 13 3 7 9 17 4 16 34 19 12 13 25 50 60 71 65 58 58 67 71 73 82 85 93 94 88 91 89 89 84 82 84 85 83 83 78 77 77 77 78 78 77 76 75 76 75 75 77
20 14 8 9 7 12 6 15 14 26 51 59 73 71 73 72 69 64 54 47 50 57 61 71 85 95 96 97 96 93 89 87 82 82 85 81 80 77 76 76 78 80 80 78 79 80 81 83 84
6 23 14 3 2 2 8 18 18 16 20 33 54 63 67 70 71 67 64 62 52 47 50 58 70 80 82 84 86 89 91 91 85 77 78 80 79 77 74 74 74 73 74 75 76 79 81 85 86
7 4 7 10 9 10 11 12 22 13 17 25 28 58 61 49 55 59 59 53 54 58 56 57 55 65 70 74 79 84 87 89 85 82 78 73 69 73 73 71 69 68 67 66 67 71 71 76 78
13 10 6 1 6 5 6 14 15 29 29 17 22 50 61 65 66 56 42 39 35 40 47 53 57 54 59 63 70 76 80 82 84 87 79 75 75 72 70 66 65 65 63 61 62 64 64 69 68
14 16 21 10 7 5 3 36 10 17 16 16 33 57 62 46 44 43 35 37 35 33 35 36 41 51 50 49 54 58 62 67 73 76 77 72 69 66 64 60 61 60 59 58 59 60 59 60 63
Wind_Direction_850mb
320 323 325 342 43 58 276 263 271 137 177 205 144 167 163 92 150 201 156 161 163 169 163 155 157 162 157 153 141 132 122 112 114 95 82 78 99 103 103 102 98 98 99 104 94 86 94 91 85
344 340 340 52 85 43 271 256 202 194 136 109 101 102 74 102 129 147 151 167 164 173 163 164 161 171 165 153 142 125 131 128 134 108 86 84 93 104 109 101 98 97 102 105 95 92 88 87 88
355 355 38 84 104 191 237 230 163 159 153 105 108 76 101 147 176 154 165 169 166 178 175 180 169 177 170 164 159 151 152 146 145 132 246 116 101 110 110 102 104 104 105 106 97 90 90 90 88
343 76 61 87 231 248 217 236 170 138 205 182 151 76 101 155 139 163 168 166 159 177 181 181 174 178 176 180 181 173 159 163 163 138 123 145 109 106 110 109 112 112 110 104 97 97 95 88 83
351 77 69 17 262 259 258 234 163 154 149 156 162 170 152 156 144 161 169 168 171 178 179 178 179 174 176 180 185 175 158 170 173 147 136 123 125 116 111 111 116 116 117 114 110 104 99 92 86
29 52 95 206 241 272 311 168 153 152 157 156 139 142 163 174 177 167 172 176 178 190 187 180 174 171 180 179 178 158 159 170 191 195 234 140 134 124 117 118 119 120 120 121 119 111 112 97 86
125 90 215 181 247 291 212 168 169 167 173 207 154 135 200 183 171 165 169 176 183 191 197 179 171 168 173 166 159 158 172 189 209 214 203 171 145 134 121 118 121 124 128 132 129 121 95 85 79
163 101 145 253 202 233 294 166 178 170 197 171 182 193 213 187 170 169 168 181 200 203 200 192 177 170 168 170 174 178 184 193 207 211 194 166 150 142 141 140 138 141 146 143 134 126 105 59 43
233 79 192 238 182 224 195 179 156 164 165 179 204 236 225 182 176 175 177 195 201 206 205 204 193 182 177 174 185 190 196 200 205 215 194 173 165 161 156 155 154 153 155 158 157 150 128 359 5
86 149 211 216 164 300 270 193 158 150 173 221 219 221 208 188 185 186 190 199 204 209 207 205 206 201 192 186 188 195 201 206 209 212 203 188 179 175 170 175 172 170 174 179 181 192 225 313 331
145 221 273 234 185 319 297 110 156 141 205 224 216 213 205 193 195 197 201 210 209 216 214 206 210 212 210 202 200 203 207 209 213 215 218 202 195 191 188 192 191 190 189 198 215 231 260 294 310
222 250 255 287 223 330 335 329 235 205 192 224 233 235 210 203 205 208 212 214 214 219 216 217 218 220 214 216 215 215 217 222 222 220 217 205 203 200 198 202 207 204 203 216 233 245 256 273 290
196 264 256 257 272 293 278 275 270 246 228 235 241 220 215 216 215 216 221 224 219 214 216 218 226 224 221 220 224 223 222 227 226 223 213 214 212 210 211 216 220 218 224 234 243 245 251 258 284
290 261 273 296 297 273 279 205 192 270 234 234 228 217 218 222 225 221 223 225 222 221 218 222 229 231 227 228 229 235 235 230 230 226 219 222 217 218 220 224 228 228 233 237 243 245 249 251 265
279 346 331 258 272 283 276 275 218 241 257 250 226 218 221 226 228 231 232 229 227 227 222 227 232 237 233 229 234 231 236 238 236 234 224 226 225 226 227 227 230 235 237 240 247 256 258 256 264
300 58 290 295 185 260 166 265 280 240 243 240 233 223 226 230 235 235 236 235 233 232 228 229 231 238 238 238 238 239 236 239 240 237 234 233 232 231 231 233 234 238 243 246 247 253 261 262 268
345 232 203 309 222 211 181 274 280 255 234 235 236 230 230 235 236 241 240 239 237 238 233 234 235 236 242 241 242 242 243 243 244 241 238 238 239 238 238 239 237 239 243 247 251 256 262 263 265
195 225 229 229 281 191 231 256 270 270 276 243 243 246 246 245 250 251 249 243 241 242 240 243 241 239 242 245 244 246 245 245 245 244 241 241 241 240 240 240 238 240 245 248 253 258 261 260 257
141 197 217 248 263 303 243 264 267 272 272 251 255 253 258 258 258 256 251 246 241 241 240 239 238 238 236 238 240 240 241 244 246 245 244 241 241 241 244 245 243 243 247 252 254 255 256 256 254
129 165 258 281 291 182 282 272 272 265 261 259 260 267 266 263 264 266 255 245 240 242 243 241 239 238 237 237 241 246 246 247 248 251 251 247 244 243 244 245 245 246 249 250 251 254 256 256 252
205 231 201 265 329 267 305 277 260 249 243 258 260 261 263 262 262 261 264 250 244 240 241 244 242 238 238 239 242 246 248 249 248 248 248 248 246 245 245 246 248 247 249 252 255 257 258 259 258
233 184 202 263 335 258 30 290 263 246 249 249 257 258 261 261 261 259 259 258 249 253 253 249 246 244 240 239 240 244 248 246 246 250 252 251 250 249 248 247 247 249 250 252 254 256 257 257 256
221 162 191 201 237 319 238 277 264 271 262 257 260 263 264 267 266 264 259 257 255 256 256 251 244 244 243 240 241 245 246 250 252 254 256 255 254 253 252 251 251 251 252 254 255 256 256 256 256
153 88 71 85 133 250 244 203 238 235 219 234 251 263 268 273 272 270 267 264 259 258 255 251 247 246 247 245 244 245 248 247 249 252 254 255 255 254 254 254 253 253 255 256 257 259 259 258 258
148 125 281 225 202 237 41 198 246 280 276 239 254 274 277 281 278 274 272 268 265 261 255 253 250 250 250 247 247 246 248 249 250 252 254 256 258 258 256 255 254 256 258 259 260 261 262 262 260
193 165 190 217 212 268 64 234 254 224 249 252 261 268 271 275 273 271 275 276 268 264 260 255 254 254 252 249 250 251 248 249 251 252 254 256 258 261 263 261 260 261 262 264 266 266 267 265 264
173 214 195 19 78 312 226 276 290 239 258 255 257 265 271 276 280 282 275 270 268 264 262 263 257 255 251 249 247 246 247 247 251 256 256 258 261 263 266 266 266 266 266 266 267 267 267 268 269
192 178 185 198 210 233 244 272 243 325 266 254 260 261 273 293 302 295 280 276 262 255 259 264 266 256 253 252 249 248 249 250 251 253 256 260 264 265 267 270 272 273 272 271 269 268 269 269 271
176 204 174 66 207 235 311 259 217 231 244 243 262 276 289 295 293 290 282 270 264 255 252 256 260 260 255 252 252 254 255 254 251 252 255 260 262 265 270 273 275 275 276 275 273 272 273 273 275
221 218 199 226 224 235 235 267 208 227 242 242 271 290 307 308 299 285 269 255 253 253 251 254 257 259 258 259 260 259 259 258 256 255 257 263 267 269 271 273 272 275 276 275 273 273 274 274 275